GSAT0203 (GALILEO 7)

Last updated on Fri Dec 12 2025 00:02:35 GMT+0000 (Coordinated Universal Time)

1 40544U 15017A 25345.50581957 -.00000088 00000+0 00000+0 0 9995 2 40544 56.8465 346.7135 0006509 271.8959 88.0466 1.70475934 66007
UTC large
Height (km)
Speed (km/s)
/
Latitude / Longitude
Inclination (degrees)
Orbital Period (minutes)
Azimuth
Elevation
Range (km)
Doppler Factor

Next 0 passes for location: London (51.5072 / 0.1276)

Sorry there are no passes over London.